This demonstration page uses our WeatherBlox Daily Observations layout. Learn more.

Left ArrowRight Arrow

41.55636, -103.73856

Hourly Observations for August 26, 2021

Temp ( °F °C ) Dew Point ( °F °C ) Humidity (%) Winds ( mph kmh ) Pressure ( in mb ) Visibility ( mi km ) Precip ( " mm )
12:58 am 00:58 Mostly Cloudy 63 17 60 15.7 92 92 E 5 7 30.04 1017 9 14 0.00 0.00
1:58 am 01:58 Partly Cloudy 68 20.1 63 17.4 85 85 S 13 20 30.00 1016 10 16 0.00 0.00
2:58 am 02:58 Clear 66 19 61 16.2 84 84 Calm 29.97 1015 10 16 0.00 0.00
3:58 am 03:58 Clear 67 19.2 58 14.4 74 74 SSW 10 17 29.94 1014 10 16 0.00 0.00
4:58 am 04:58 Mostly Cloudy 68 20.1 53 11.4 57 57 S 26 43 29.93 1013 10 16 0.00 0.00
5:58 am 05:58 Clear 63 17.4 54 12.1 71 71 Calm 29.97 1015 10 16 0.00 0.00
6:58 am 06:58 Partly Cloudy 68 19.9 54 12.4 62 62 WNW 12 19 30.00 1016 10 16 0.00 0.00
7:58 am 07:58 Mostly Sunny 69 20.4 57 14.1 67 67 SW 5 7 30.03 1017 10 16 0.00 0.00
8:58 am 08:58 Sunny 72 22.4 58 14.4 61 61 NW 7 11 30.02 1017 10 16 0.00 0.00
9:58 am 09:58 Sunny 77 24.8 52 11.2 43 43 ENE 8 13 30.01 1016 10 16 0.00 0.00
10:58 am 10:58 Sunny 80 26.8 45 7.3 29 29 ENE 7 11 29.99 1016 10 16 0.00 0.00
11:58 am 11:58 Sunny 83 28.2 42 5.7 24 24 NE 8 13 29.96 1015 10 16 0.00 0.00
12:58 pm 12:58 Sunny 82 27.9 43 5.9 25 25 Calm 29.96 1015 10 16 0.00 0.00
1:58 pm 13:58 Mostly Sunny 83 28.6 40 4.4 21 21 Calm 29.92 1013 10 16 0.00 0.00
2:58 pm 14:58 Sunny 85 29.3 38 3.3 19 19 SW 8 13 29.91 1013 10 16 0.00 0.00
3:58 pm 15:58 Sunny 87 30.4 33 0.4 14 14 W 9 15 29.87 1011 10 16 0.00 0.00
4:58 pm 16:58 Sunny 87 30.7 33 0.4 14 14 SW 6 9 29.84 1011 10 16 0.00 0.00
5:58 pm 17:58 Sunny 87 30.6 32 0 14 14 SW 12 19 29.83 1010 10 16 0.00 0.00
6:58 pm 18:58 Partly Cloudy 83 28.2 35 1.6 18 18 SW 6 9 29.83 1010 10 16 0.00 0.00
7:58 pm 19:58 Mostly Cloudy 76 24.4 42 5.8 30 30 NNW 10 17 29.89 1012 10 16 0.00 0.00
8:58 pm 20:58 Mostly Cloudy 72 22 43 6.2 36 36 NNW 14 22 29.92 1013 10 16 0.00 0.00
9:58 pm 21:58 Mostly Cloudy 72 22 42 5.8 35 35 W 17 28 29.93 1014 10 16 0.00 0.00
10:58 pm 22:58 Mostly Cloudy 72 22.1 41 5 33 33 W 17 28 29.87 1012 10 16 0.00 0.00
11:58 pm 23:58 Mostly Cloudy 64 17.6 51 10.5 63 63 SW 9 15 29.86 1011 10 16 0.01 0.25

Powered by AerisWeather